Regional Weather Roundup
Issued by NWS

Home | Current Version | Previous Version | Graphics & Text | Print | Product List | Glossary Off
Versions: 1 2 3 4 5 6 7 8 9 10 11 12 13 14 15 16 17 18 19 20 21 22 23 24 25 26 27 28 29 30 31 32 33 34 35 36 37 38 39 40 41 42 43 44 45 46 47 48 49 50

000
ASUS43 KTOP 250408
RWRKS

WEATHER ROUNDUP FOR KANSAS
NATIONAL WEATHER SERVICE GOODLAND KS
1100 PM CDT WED AUG 24 2016

NOTE:  "FAIR" INDICATES FEW OR NO CLOUDS BELOW 12,000 FEET WITH NO
SIGNIFICANT WEATHER AND/OR OBSTRUCTIONS TO VISIBILITY.

KSZ001>006-013>018-027>032-041>047-250500-
NORTHWEST KANSAS

CITY           SKY/WX    TMP DP  RH WIND       PRES   REMARKS
GOODLAND       CLOUDY    59  50  72 CALM      30.19R
HAYS           MOCLDY    64  54  68 NE9       30.11R
HILL CITY      PTCLDY    62  54  74 N6        30.13S
RUSSELL        MOCLDY    63  58  83 NE9       30.09R
$$

KSZ061>065-074>080-084>089-250500-
SOUTHWEST KANSAS

CITY           SKY/WX    TMP DP  RH WIND       PRES   REMARKS
DODGE CITY     CLOUDY    67  64  90 NE14      30.09R
ELKHART          N/A     65  58  78 NW9         N/A
GARDEN CITY    CLOUDY    65  59  81 NE17      30.11R
GREAT BEND     MOCLDY    64  55  72 N12       30.09R
LIBERAL        CLOUDY    66  61  82 N12       30.10S
PRATT          PTCLDY    67  65  91 NE7       30.06S
$$

KSZ066>073-081>083-090>101-250500-
SOUTHEAST KANSAS

CITY           SKY/WX    TMP DP  RH WIND       PRES   REMARKS
CHANUTE        CLOUDY    74  69  85 CALM      30.03R
COFFEYVILLE    PTCLDY    84  66  54 S9        30.02R
HUTCHINSON     CLEAR     70  66  87 E7        30.05R
MEDICINE LODGE   N/A     75  70  84 NE8       30.00R
NEWTON         PTCLDY    70  68  93 CALM      30.06R
PARSONS        MOCLDY    76  69  79 N6        30.04R
WICHITA INTL   CLOUDY    75  68  78 E3        30.02F
WICHITA JABRA  CLOUDY    71  70  96 N6        30.02F
WICHITA MCCONL CLOUDY    75  68  80 NE2       30.02S
WINFIELD       TSTM      70  68  93 S8        30.05R FOG
$$

KSZ007>012-019>026-033>040-048>060-102>105-250500-
NORTHEAST KANSAS

CITY           SKY/WX    TMP DP  RH WIND       PRES   REMARKS
CONCORDIA      CLEAR     61  58  90 N5        30.08S
EMPORIA        CLOUDY    72  71  97 SE3       30.03S
LAWRENCE       RAIN      72  32  23 MISG      30.05R
MANHATTAN      PTCLDY    68  64  87 NE3       30.04R
MARYSVILLE     PTCLDY    63  63 100 N3        30.06S
OLATHE IND     CLOUDY    71  70  96 CALM      30.04S
OLATHE EXE     CLOUDY    70  70 100 SE3       30.03F
SALINA         PTCLDY    69  64  84 N6        30.06R
TOPEKA BILLARD CLOUDY    72  70  93 N5        30.04R
TOPEKA FORBES  HVY RAIN  73  70  90 N6        30.02F
$$



USA.gov is the U.S. government's official web portal to all federal, state and local government web resources and services.